Location: Izdebno
(52.6670°N, 16.2170°E)
Time: 12:52:22
(UTC+02:00)

Vanguard 2 - Pass Details

Date: 03 February 2023
Orbit: 553 x 2927 km, 32.9° (Epoch: 26 March)

Event Time Altitude Azimuth Distance (km) Brightness Sun altitude
Rises 23:46:02 0° 243° (WSW) 6,021 - -53.7°
Reaches altitude 10° 23:50:08 10° 236° (SW) 5,265 - -53.8°
Maximum altitude 00:04:16 37° 177° (S) 3,930 - -54.0°
Drops below altitude 10° 00:19:09 10° 119° (ESE) 5,538 - -53.9°
Exits shadow 00:22:55 - 113° (ESE) 6,228 12.0 -53.9°
Sets 00:23:35 0° 112° (ESE) 6,355 12.1 -53.9°
